LA3HX Weather Reports


Display with metric or nautical units.
time (UTC)temp
F
wind
direction
speed
MPH
gust
MPH
rain 1hr
in
rain 24hr
in
rain mn
in
humidity
%
barometer
mb
20210926210507 54 90 0.0 0.0 0.00 0.00 0.00 81 997.8
20210926210007 54 90 0.0 0.0 0.00 0.00 0.00 81 997.7
20210926205506 54 90 0.0 0.0 0.00 0.00 0.00 82 997.8
20210926205007 54 90 0.0 0.0 0.00 0.00 0.00 82 997.6
20210926204507 54 92 0.0 0.0 0.00 0.00 0.00 82 997.7
20210926204008 54 45 0.0 0.0 0.00 0.00 0.00 82 997.7
20210926203506 54 90 0.0 0.0 0.00 0.00 0.00 83 997.7
20210926203008 54 45 0.0 0.0 0.00 0.00 0.00 83 997.6
20210926202507 54 88 0.0 0.0 0.00 0.00 0.00 83 997.7
20210926202008 54 90 0.0 0.0 0.00 0.00 0.00 83 997.6
20210926201506 54 90 0.0 0.0 0.00 0.00 0.00 84 997.7
20210926201007 54 90 0.0 0.0 0.00 0.00 0.00 84 997.5
20210926200506 54 90 0.0 0.0 0.00 0.00 0.00 84 997.9
20210926200006 53 45 0.0 0.0 0.00 0.00 0.00 84 997.8
20210926195507 53 45 0.0 0.0 0.00 0.00 0.00 83 997.8
20210926195007 53 45 0.0 0.0 0.00 0.00 0.00 83 997.9
20210926194507 53 45 0.0 0.0 0.00 0.00 0.00 83 997.7
20210926194006 53 45 0.0 0.0 0.00 0.00 0.00 82 997.7
20210926193506 53 45 0.0 0.0 0.00 0.00 0.00 82 997.7
20210926193007 54 45 0.0 0.0 0.00 0.00 0.00 82 997.6
20210926192506 54 45 0.0 0.0 0.00 0.00 0.00 82 997.8
20210926192006 54 45 0.0 0.0 0.00 0.00 0.00 82 997.7
20210926191506 54 45 0.0 0.0 0.00 0.00 0.00 82 997.3
20210926191007 54 45 0.0 0.0 0.00 0.00 0.00 82 997.5
20210926190506 54 45 0.0 0.0 0.00 0.00 0.00 81 997.5
20210926190008 54 45 0.0 0.0 0.00 0.00 0.00 81 997.4
20210926185506 54 45 0.0 0.0 0.00 0.00 0.00 81 997.6
20210926185007 55 45 0.0 0.0 0.00 0.00 0.00 77 997.3
20210926184506 55 45 0.0 0.0 0.00 0.00 0.00 77 997.2
20210926184006 55 45 0.0 0.0 0.00 0.00 0.00 76 997.0
20210926183506 55 45 0.0 0.0 0.00 0.00 0.00 75 997.3
20210926183007 55 45 0.0 0.0 0.00 0.00 0.00 75 997.4
20210926182506 55 45 0.0 0.0 0.00 0.00 0.00 75 997.3
20210926182007 55 45 0.0 0.0 0.00 0.00 0.00 74 997.6
20210926181507 55 45 0.0 0.0 0.00 0.00 0.00 74 997.3
20210926181008 55 45 0.0 0.0 0.00 0.00 0.00 74 997.4
20210926180506 56 45 0.0 0.0 0.00 0.00 0.00 73 997.7
20210926180006 56 45 0.0 0.0 0.00 0.00 0.00 73 997.4
20210926175507 56 45 0.0 0.0 0.00 0.00 0.00 73 997.5
20210926175007 56 45 0.0 0.0 0.00 0.00 0.00 73 997.4
20210926174506 56 45 0.0 0.0 0.00 0.00 0.00 73 997.5
20210926174006 56 45 0.0 0.0 0.00 0.00 0.00 73 997.3
20210926173507 56 45 0.0 0.0 0.00 0.00 0.00 72 997.2
20210926173007 56 45 0.0 0.0 0.00 0.00 0.00 72 997.3
20210926172506 56 45 0.0 0.0 0.00 0.00 0.00 72 997.3
20210926172006 56 45 0.0 0.0 0.00 0.00 0.00 72 997.3
20210926171506 57 45 0.0 0.0 0.00 0.00 0.00 71 997.2
20210926171006 57 45 0.0 0.0 0.00 0.00 0.00 71 997.2
20210926170506 57 45 0.0 0.0 0.00 0.00 0.00 71 997.2
20210926170007 57 45 0.0 0.0 0.00 0.00 0.00 71 997.1
20210926165507 57 45 0.0 0.0 0.00 0.00 0.00 71 997.0
20210926165007 57 45 0.0 0.0 0.00 0.00 0.00 71 997.1
20210926164506 57 45 0.0 0.0 0.00 0.00 0.00 71 997.0
20210926164007 57 45 0.0 0.0 0.00 0.00 0.00 71 996.9
20210926163507 57 42 0.0 0.0 0.00 0.00 0.00 70 997.0
20210926163007 57 270 0.0 0.0 0.00 0.00 0.00 70 996.9
20210926162506 58 315 0.0 0.0 0.00 0.00 0.00 70 997.1
20210926162007 58 358 0.0 0.0 0.00 0.00 0.00 70 996.8
20210926161506 58 315 0.0 0.0 0.00 0.00 0.00 69 997.0
20210926161007 58 267 0.0 0.0 0.00 0.00 0.00 69 996.7
20210926160506 58 47 0.0 0.0 0.00 0.00 0.00 69 997.0
20210926160007 58 43 0.0 0.0 0.00 0.00 0.00 68 996.9
20210926155506 59 135 0.0 0.0 0.00 0.00 0.00 67 997.0
20210926155007 59 90 0.0 0.0 0.00 0.00 0.00 67 996.9
20210926154507 59 312 0.0 0.0 0.00 0.00 0.00 67 997.0
20210926154006 59 222 0.0 0.0 0.00 0.00 0.00 67 997.3
20210926153506 59 358 0.0 0.0 0.00 0.00 0.00 66 997.2
20210926153007 60 268 0.0 0.0 0.00 0.00 0.00 65 997.2
20210926152507 61 271 0.0 1.0 0.00 0.00 0.00 63 996.9
20210926152007 62 357 0.0 0.0 0.00 0.00 0.00 62 997.1
20210926151506 63 270 0.0 0.0 0.00 0.00 0.00 63 997.0
20210926151006 62 155 0.0 0.0 0.00 0.00 0.00 62 997.3
20210926150507 63 272 0.0 3.0 0.00 0.00 0.00 62 997.0
20210926150007 64 133 1.0 3.0 0.00 0.00 0.00 61 997.0
20210926145508 62 270 0.0 5.0 0.00 0.00 0.00 66 997.1
20210926145007 61 270 1.0 5.0 0.00 0.00 0.00 67 997.2
20210926144507 60 159 0.0 1.0 0.00 0.00 0.00 67 997.1
20210926144007 60 313 0.0 1.0 0.00 0.00 0.00 66 997.1
20210926143507 60 43 0.0 0.0 0.00 0.00 0.00 69 997.3
20210926143006 59 183 0.0 3.0 0.00 0.00 0.00 70 997.0
20210926142506 58 228 0.0 1.0 0.00 0.00 0.00 69 997.0
20210926142007 59 182 0.0 0.0 0.00 0.00 0.00 67 996.9
20210926141507 59 289 0.0 0.0 0.00 0.00 0.00 67 996.9
20210926141007 59 180 0.0 0.0 0.00 0.00 0.00 65 997.2
20210926140508 59 180 0.0 0.0 0.00 0.00 0.00 65 997.0
20210926140007 59 93 0.0 0.0 0.00 0.00 0.00 65 997.1
20210926135507 60 135 0.0 0.0 0.00 0.00 0.00 64 997.2
20210926135007 60 92 0.0 0.0 0.00 0.00 0.00 63 996.9
20210926134507 60 113 0.0 1.0 0.00 0.00 0.00 62 997.0
20210926134007 61 183 0.0 0.0 0.00 0.00 0.00 61 996.8
20210926133506 62 203 0.0 0.0 0.00 0.00 0.00 61 996.9
20210926133006 63 135 0.0 0.0 0.00 0.00 0.00 60 996.9
20210926132508 64 90 0.0 0.0 0.00 0.00 0.00 55 996.9
20210926132008 64 45 0.0 0.0 0.00 0.00 0.00 56 996.9
20210926131507 64 45 0.0 0.0 0.00 0.00 0.00 55 996.8
20210926131007 64 315 0.0 0.0 0.00 0.00 0.00 54 996.9
20210926130507 65 315 0.0 0.0 0.00 0.00 0.00 54 996.8
20210926130007 65 90 0.0 3.0 0.00 0.00 0.00 56 996.8
20210926125506 66 313 0.0 0.0 0.00 0.00 0.00 56 997.0
20210926125006 65 184 0.0 2.0 0.00 0.00 0.00 58 997.0
20210926124507 64 316 0.0 0.0 0.00 0.00 0.00 62 997.0
20210926124007 62 113 0.0 0.0 0.00 0.00 0.00 67 997.0
20210926123507 60 135 0.0 1.0 0.00 0.00 0.00 67 997.2
20210926123007 60 312 0.0 0.0 0.00 0.00 0.00 70 997.2
20210926122506 59 315 0.0 3.0 0.00 0.00 0.00 70 997.2
20210926122007 59 43 0.0 0.0 0.00 0.00 0.00 70 997.1
20210926121506 58 270 0.0 0.0 0.00 0.00 0.00 72 997.3
20210926121006 58 295 0.0 2.0 0.00 0.00 0.00 72 997.4
20210926120507 59 315 0.0 0.0 0.00 0.00 0.00 73 997.4
20210926120007 59 315 0.0 0.0 0.00 0.00 0.00 73 997.1
20210926115507 59 272 0.0 0.0 0.00 0.00 0.00 77 997.1
20210926115007 58 315 0.0 0.0 0.00 0.00 0.00 78 997.3
20210926114506 57 45 0.0 0.0 0.00 0.00 0.00 80 997.3
20210926114006 56 358 0.0 0.0 0.00 0.00 0.00 79 997.4
20210926113507 56 317 0.0 0.0 0.00 0.00 0.00 79 997.3
20210926113007 56 223 0.0 0.0 0.00 0.00 0.00 79 997.4
20210926112508 56 133 0.0 0.0 0.00 0.00 0.00 80 997.4
20210926112006 56 90 0.0 0.0 0.00 0.00 0.00 80 997.3
20210926111507 56 90 0.0 0.0 0.00 0.00 0.00 81 997.2
20210926111007 56 90 0.0 0.0 0.00 0.00 0.00 81 997.3
20210926110507 55 90 0.0 0.0 0.00 0.00 0.00 81 997.3
20210926110008 55 90 0.0 0.0 0.00 0.00 0.00 82 997.2
20210926105507 55 90 0.0 0.0 0.00 0.00 0.00 82 997.5
20210926105008 55 90 0.0 0.0 0.00 0.00 0.00 82 997.1
20210926104506 54 90 0.0 0.0 0.00 0.00 0.00 83 997.2
20210926104007 54 133 0.0 0.0 0.00 0.00 0.00 87 997.4
20210926103507 54 225 0.0 0.0 0.00 0.00 0.00 88 997.2
20210926103007 54 222 0.0 0.0 0.00 0.00 0.00 89 997.3
20210926102507 54 2 0.0 0.0 0.00 0.00 0.00 90 997.2
20210926102007 54 315 0.0 0.0 0.00 0.00 0.00 90 997.4
20210926101507 54 312 0.0 0.0 0.00 0.00 0.00 91 997.0
20210926101008 54 0 0.0 0.0 0.00 0.00 0.00 91 997.1
20210926100506 54 138 0.0 0.0 0.00 0.00 0.00 92 997.0
20210926100006 54 45 0.0 0.0 0.00 0.00 0.00 93 996.9
20210926095506 54 270 0.0 0.0 0.00 0.00 0.00 95 997.1
20210926095006 54 2 0.0 0.0 0.00 0.00 0.00 96 997.0
20210926094510 53 137 0.0 0.0 0.00 0.00 0.00 96 997.2
20210926093505 53 184 0.0 0.0 0.00 0.00 0.00 96 997.0
20210926093008 53 315 0.0 0.0 0.00 0.00 0.00 96 997.1
20210926092505 53 135 0.0 0.0 0.00 0.00 0.00 96 996.9
20210926092008 53 268 0.0 0.0 0.00 0.00 0.00 97 996.9
20210926091506 53 272 0.0 0.0 0.00 0.00 0.00 97 996.9
20210926091007 53 90 0.0 0.0 0.00 0.00 0.00 97 996.9
20210926090505 53 45 0.0 0.0 0.00 0.00 0.00 97 996.9
20210926090006 52 90 0.0 0.0 0.00 0.00 0.00 97 996.9
20210926085505 52 42 0.0 0.0 0.00 0.00 0.00 97 996.8
20210926085007 52 180 0.0 0.0 0.00 0.00 0.00 97 996.8
20210926084506 52 68 0.0 0.0 0.00 0.00 0.00 96 996.6
20210926084007 52 45 0.0 0.0 0.00 0.00 0.00 96 996.7
20210926083505 52 133 0.0 0.0 0.00 0.00 0.00 96 996.6
20210926083007 52 87 0.0 0.0 0.00 0.00 0.00 96 996.5
20210926082505 52 315 0.0 0.0 0.00 0.00 0.00 96 996.3
20210926082007 51 315 0.0 0.0 0.00 0.00 0.00 96 996.5
20210926081505 52 270 0.0 0.0 0.00 0.00 0.00 96 996.4
20210926081007 52 112 0.0 0.0 0.00 0.00 0.00 96 996.5
20210926080505 51 112 0.0 0.0 0.00 0.00 0.00 96 996.3
20210926080006 51 113 0.0 0.0 0.00 0.00 0.00 96 996.1
20210926075505 51 183 0.0 0.0 0.00 0.00 0.00 96 996.0
20210926075008 51 182 0.0 0.0 0.00 0.00 0.00 96 995.9
20210926074505 52 88 0.0 0.0 0.00 0.00 0.00 96 995.8
20210926074008 52 318 0.0 0.0 0.00 0.00 0.00 96 995.9
20210926073505 51 45 0.0 0.0 0.00 0.00 0.00 96 995.9
20210926073008 51 45 0.0 0.0 0.00 0.00 0.00 96 995.7
20210926072505 51 45 0.0 0.0 0.00 0.00 0.00 96 995.8
20210926072007 51 45 0.0 0.0 0.00 0.00 0.00 96 995.8
20210926071505 51 0 0.0 0.0 0.00 0.00 0.00 96 995.8
20210926071008 51 0 0.0 0.0 0.00 0.00 0.00 96 995.8
20210926070505 51 358 0.0 0.0 0.00 0.00 0.00 96 995.6
20210926070006 51 315 0.0 0.0 0.00 0.00 0.00 96 995.6
20210926065505 51 291 0.0 0.0 0.00 0.00 0.00 96 995.5
20210926065007 51 315 0.0 0.0 0.00 0.00 0.00 96 995.4
20210926064505 51 270 0.0 0.0 0.00 0.00 0.00 96 995.4
20210926064009 51 183 0.0 0.0 0.00 0.00 0.00 95 995.1
20210926063505 51 180 0.0 0.0 0.00 0.00 0.00 95 995.3
20210926063008 51 0 0.0 0.0 0.00 0.00 0.00 95 995.2
20210926062505 51 0 0.0 0.0 0.00 0.00 0.00 95 995.0
20210926062007 51 0 0.0 0.0 0.00 0.00 0.00 95 995.3
20210926061505 51 0 0.0 0.0 0.00 0.00 0.00 95 995.2
20210926061008 51 0 0.0 0.0 0.00 0.00 0.00 94 995.2
20210926060505 50 0 0.0 0.0 0.00 0.00 0.00 94 995.1
20210926060005 50 0 0.0 0.0 0.00 0.00 0.00 94 995.1
20210926055505 50 90 0.0 0.0 0.00 0.00 0.00 94 994.9
20210926055008 50 90 0.0 0.0 0.00 0.00 0.00 94 995.0
20210926054506 50 315 0.0 0.0 0.00 0.00 0.00 93 994.9
20210926054007 50 90 0.0 0.0 0.00 0.00 0.00 93 995.0
20210926053506 50 45 0.0 0.0 0.00 0.00 0.00 93 995.0
20210926053008 50 315 0.0 0.0 0.00 0.00 0.00 92 995.0
20210926052505 50 225 0.0 0.0 0.00 0.00 0.00 92 994.9
20210926052007 50 267 0.0 0.0 0.00 0.00 0.00 92 994.8
20210926051506 50 272 0.0 0.0 0.00 0.00 0.00 91 994.9
20210926051009 50 272 0.0 0.0 0.00 0.00 0.00 91 994.6
20210926050505 50 88 0.0 0.0 0.00 0.00 0.00 91 994.7
20210926050006 50 358 0.0 0.0 0.00 0.00 0.00 91 994.5
20210926045505 50 272 0.0 0.0 0.00 0.00 0.00 90 994.4
20210926045008 50 313 0.0 0.0 0.00 0.00 0.00 90 994.5
20210926044505 50 315 0.0 0.0 0.00 0.00 0.00 91 994.6
20210926044007 50 317 0.0 0.0 0.00 0.00 0.00 91 994.6
20210926043505 50 315 0.0 0.0 0.00 0.00 0.00 91 994.7
20210926043008 50 315 0.0 0.0 0.00 0.00 0.00 91 994.5
20210926042506 50 313 0.0 0.0 0.00 0.00 0.00 91 994.6
20210926042008 50 315 0.0 0.0 0.00 0.00 0.00 90 994.3
20210926041505 50 315 0.0 0.0 0.00 0.00 0.00 90 994.4
20210926041007 50 318 0.0 0.0 0.00 0.00 0.00 90 994.1
20210926040505 50 313 0.0 0.0 0.00 0.00 0.00 89 994.2
20210926040005 50 317 0.0 0.0 0.00 0.00 0.00 87 994.2
20210926035505 50 293 0.0 0.0 0.00 0.00 0.00 85 994.2
20210926035007 50 313 0.0 0.0 0.00 0.00 0.00 84 994.4
20210926034505 50 292 0.0 0.0 0.00 0.00 0.00 82 994.2
20210926034007 50 292 0.0 0.0 0.00 0.00 0.00 81 994.1
20210926033506 49 292 0.0 0.0 0.00 0.00 0.00 80 994.1
20210926033008 49 292 0.0 0.0 0.00 0.00 0.00 80 994.1
20210926032506 49 292 0.0 0.0 0.00 0.00 0.00 80 994.0
20210926032008 50 292 0.0 0.0 0.00 0.00 0.00 80 994.1
20210926031505 50 292 0.0 0.0 0.00 0.00 0.00 80 994.0
20210926031007 50 292 0.0 0.0 0.00 0.00 0.00 80 993.9
20210926030505 50 292 0.0 0.0 0.00 0.00 0.00 80 994.0
20210926030005 50 292 0.0 0.0 0.00 0.00 0.00 81 993.9
20210926025506 50 292 0.0 0.0 0.00 0.00 0.00 81 994.0
20210926025008 50 292 0.0 0.0 0.00 0.00 0.00 81 993.9
20210926024506 50 292 0.0 0.0 0.00 0.00 0.00 80 993.9
20210926024007 50 292 0.0 0.0 0.00 0.00 0.00 80 994.0
20210926023506 50 315 0.0 0.0 0.00 0.00 0.00 80 993.8
20210926023007 50 315 0.0 0.0 0.00 0.00 0.00 80 993.9
20210926022506 50 315 0.0 0.0 0.00 0.00 0.00 79 993.8
20210926022008 50 315 0.0 0.0 0.00 0.00 0.00 78 993.8
20210926021505 50 315 0.0 0.0 0.00 0.00 0.00 78 993.7
20210926021008 50 315 0.0 0.0 0.00 0.00 0.00 77 993.8
20210926020505 50 315 0.0 0.0 0.00 0.00 0.00 77 993.8
20210926020006 50 315 0.0 0.0 0.00 0.00 0.00 76 993.7
20210926015506 50 315 0.0 0.0 0.00 0.00 0.00 76 993.5
20210926015007 50 315 0.0 0.0 0.00 0.00 0.00 76 993.7
20210926014505 50 315 0.0 0.0 0.00 0.00 0.00 76 993.8
20210926014007 50 315 0.0 0.0 0.00 0.00 0.00 76 993.8
20210926013505 50 315 0.0 0.0 0.00 0.00 0.00 75 993.6
20210926013008 50 315 0.0 0.0 0.00 0.00 0.00 75 993.5
20210926012506 50 315 0.0 0.0 0.00 0.00 0.00 75 993.5
20210926012008 50 315 0.0 0.0 0.00 0.00 0.00 74 993.6
20210926011506 50 315 0.0 0.0 0.00 0.00 0.00 74 993.7
20210926011007 50 315 0.0 0.0 0.00 0.00 0.00 75 993.4
20210926010505 50 315 0.0 0.0 0.00 0.00 0.00 74 993.2
20210926010005 50 315 0.0 0.0 0.00 0.00 0.00 74 993.3
20210926005506 50 315 0.0 0.0 0.00 0.00 0.00 74 993.4
20210926005008 50 315 0.0 0.0 0.00 0.00 0.00 73 993.1
20210926004506 50 315 0.0 0.0 0.00 0.00 0.00 73 993.3
20210926004007 50 315 0.0 0.0 0.00 0.00 0.00 72 993.0
20210926003506 50 315 0.0 0.0 0.00 0.00 0.00 72 993.2
20210926003008 50 315 0.0 0.0 0.00 0.00 0.00 72 992.8
20210926002505 51 315 0.0 0.0 0.00 0.00 0.00 72 993.0
20210926002009 51 315 0.0 0.0 0.00 0.00 0.00 72 992.9
20210926001505 51 315 0.0 0.0 0.00 0.00 0.00 73 993.2
20210926001007 51 315 0.0 0.0 0.00 0.00 0.00 73 993.0
20210926000506 51 315 0.0 0.0 0.00 0.00 0.00 73 992.8
20210926000005 51 315 0.0 0.0 0.00 0.00 0.00 73 992.8
20210925235506 51 315 0.0 0.0 0.00 0.00 0.00 72 992.9
20210925235008 51 315 0.0 0.0 0.00 0.00 0.00 72 992.8
20210925234506 51 315 0.0 0.0 0.00 0.00 0.00 71 992.6
20210925234008 51 315 0.0 0.0 0.00 0.00 0.00 71 992.8
20210925233505 51 315 0.0 0.0 0.00 0.00 0.00 71 992.8
20210925233008 51 315 0.0 0.0 0.00 0.00 0.00 71 992.6
20210925232505 51 315 0.0 0.0 0.00 0.00 0.00 70 992.7
20210925232007 51 315 0.0 0.0 0.00 0.00 0.00 70 992.6
20210925231505 51 45 0.0 0.0 0.00 0.00 0.00 70 992.6
20210925231008 51 45 0.0 0.0 0.00 0.00 0.00 69 992.5
20210925230506 51 45 0.0 0.0 0.00 0.00 0.00 68 992.4
20210925230007 51 45 0.0 0.0 0.00 0.00 0.00 67 992.6
20210925225505 51 45 0.0 0.0 0.00 0.00 0.00 66 992.4
20210925225007 51 45 0.0 0.0 0.00 0.00 0.00 66 992.3
20210925224505 51 45 0.0 0.0 0.00 0.00 0.00 65 992.3
20210925224008 51 45 0.0 0.0 0.00 0.00 0.00 65 992.3
20210925223506 51 45 0.0 0.0 0.00 0.00 0.00 64 992.2
20210925223008 51 47 0.0 0.0 0.00 0.00 0.00 64 992.2
20210925222505 51 45 0.0 0.0 0.00 0.00 0.00 63 992.0
20210925222008 51 270 0.0 0.0 0.00 0.00 0.00 61 992.1
20210925221506 51 270 0.0 0.0 0.00 0.00 0.00 61 992.1
20210925221007 51 270 0.0 0.0 0.00 0.00 0.00 61 992.1
20210925220506 52 270 0.0 0.0 0.00 0.00 0.00 61 992.2
20210925220006 52 270 0.0 0.0 0.00 0.00 0.00 61 992.0
20210925215506 52 270 0.0 0.0 0.00 0.00 0.00 60 992.0
20210925215008 52 270 0.0 0.0 0.00 0.00 0.00 60 992.0
20210925214506 52 270 0.0 0.0 0.00 0.00 0.00 60 991.9
20210925214008 53 270 0.0 0.0 0.00 0.00 0.00 60 991.7
20210925213506 53 270 0.0 0.0 0.00 0.00 0.00 60 991.8
20210925213009 52 270 0.0 0.0 0.00 0.00 0.00 60 991.6
20210925212506 52 270 0.0 0.0 0.00 0.00 0.00 60 991.5
20210925212008 52 270 0.0 0.0 0.00 0.00 0.00 59 991.5
20210925211506 53 270 0.0 0.0 0.00 0.00 0.00 59 991.5
20210925211007 53 270 0.0 0.0 0.00 0.00 0.00 59 991.8